Lid_Strength_Index
1 0 0 0 -0 -0 -0 -0 -0 -0 -1 -1 -1 -1 -1 -1 -0 3 5 2 1 -1 -0 3 4 4 3 4 4 4 10 11 9 10 9 9 10 8 9 10 9 8 9 9 7
1 1 1 1 0 0 -0 -0 -0 -0 -0 -1 -1 -1 -1 -1 2 4 0 -1 -2 -1 2 4 5 4 6 5 5 7 10 9 8 8 9 8 9 9 10 10 9 9 8 8 8
2 2 2 1 1 1 0 0 -0 -0 -0 -0 -0 -1 -1 0 4 4 -2 -2 -1 -0 3 4 4 4 6 5 6 7 9 8 8 7 8 8 9 8 9 10 9 9 8 9 9
2 2 2 2 1 1 1 0 0 -0 -0 -0 -1 -0 -0 1 8 3 -1 -1 -1 1 3 4 5 6 7 7 6 9 7 7 6 7 8 9 8 9 9 9 8 9 8 9 9
1 2 2 2 2 1 1 1 1 0 -0 -0 -1 -1 1 5 5 3 -0 0 2 4 5 5 6 6 7 7 7 8 8 7 7 8 8 8 9 9 9 8 7 7 8 9 9
2 2 2 2 2 2 2 1 1 1 0 0 -0 -0 3 8 3 3 4 4 3 4 5 5 6 6 7 7 8 8 8 8 8 8 8 9 9 9 8 7 7 7 9 9 9
2 2 2 2 2 2 2 2 1 1 1 0 -0 0 4 6 3 4 4 4 4 4 5 5 5 6 6 7 7 8 10 9 8 8 9 9 11 10 8 8 8 8 8 8 8
3 4 4 4 3 3 2 2 2 1 1 1 -0 2 6 3 4 4 4 5 5 5 5 5 5 6 7 7 8 10 10 12 9 8 9 10 13 9 8 8 8 9 9 8 8
3 4 4 4 3 3 3 3 3 2 2 1 2 3 7 3 4 4 4 5 5 5 5 5 5 7 8 10 11 10 13 12 10 8 9 11 12 9 9 10 10 9 9 9 8
3 3 4 3 3 3 3 3 2 3 2 2 4 7 6 7 5 5 5 5 6 6 7 7 8 10 10 11 15 13 13 11 12 10 10 12 12 10 9 9 10 9 8 8 8
3 3 3 3 3 3 4 5 7 6 6 8 7 7 7 6 4 6 6 6 6 7 10 8 11 13 11 10 10 10 11 12 10 9 11 11 11 10 10 9 9 9 8 8 9
2 3 3 3 3 3 4 7 7 7 11 8 8 7 7 6 8 7 6 9 9 11 10 11 13 10 9 9 11 11 12 12 11 10 11 12 12 10 10 9 9 9 9 9 10
3 3 3 3 3 3 5 7 5 6 11 10 9 9 9 7 9 9 9 9 10 11 11 12 11 9 10 11 11 12 13 13 13 11 12 14 14 13 11 9 9 9 9 10 11
2 2 3 3 5 5 6 6 5 5 14 12 11 9 9 8 12 9 8 9 10 12 11 12 10 10 11 12 11 14 11 11 12 14 16 13 17 14 13 12 11 10 10 11 11
3 3 2 3 5 6 6 6 5 7 19 11 12 8 9 11 11 12 10 11 13 12 12 13 13 13 13 12 10 13 12 13 13 14 15 15 17 16 12 13 12 11 10 10 10
3 3 3 4 4 5 5 5 6 14 20 13 11 12 12 11 12 12 12 11 11 13 13 13 12 12 12 12 12 12 13 14 15 16 19 16 16 18 15 13 13 11 11 11 11
3 3 4 4 6 5 6 8 15 18 12 13 13 12 12 12 12 13 14 15 15 17 16 14 14 13 12 14 13 13 15 18 19 20 19 15 17 15 13 12 12 12 11 11 11
3 3 4 4 5 5 7 11 18 13 13 11 12 12 13 12 12 13 14 15 14 14 15 16 17 14 13 13 14 15 14 18 21 20 18 18 19 16 12 11 11 11 11 11 12
3 4 5 4 5 6 10 17 14 11 10 10 11 14 14 13 13 13 14 14 12 13 15 16 15 14 13 13 12 15 17 14 17 21 21 17 16 14 12 12 12 12 12 12 12
4 4 5 3 5 7 13 15 13 8 8 10 13 12 15 13 14 14 14 13 12 11 11 13 15 14 15 14 15 15 14 18 17 23 24 18 18 16 13 12 13 13 13 12 12
4 6 5 4 4 9 15 15 11 8 8 10 11 12 13 14 13 13 14 12 12 12 11 13 14 16 15 17 16 17 17 16 16 16 22 21 18 15 14 13 13 13 12 11 11
4 9 6 4 10 11 13 12 10 10 8 10 12 12 13 13 14 13 13 12 10 11 13 12 13 17 15 13 15 14 15 15 18 19 19 18 17 12 13 13 13 12 11 11 11
6 7 4 4 12 12 11 10 9 9 10 10 10 10 10 12 14 13 12 11 10 11 14 12 16 19 18 15 16 16 15 14 14 15 17 19 17 11 11 11 12 12 12 11 11
6 10 7 6 6 10 11 11 11 9 9 8 9 9 11 13 12 13 13 10 10 11 10 10 14 15 17 15 13 16 16 16 15 15 17 17 16 13 12 12 11 10 10 11 11
6 8 7 11 10 9 9 10 12 12 8 8 10 10 11 13 12 12 11 12 11 10 10 11 16 15 14 13 13 14 14 14 15 14 17 16 15 13 12 11 11 10 10 11 11
8 8 8 8 8 9 9 11 11 10 10 11 11 10 10 12 11 12 11 11 11 12 10 11 15 15 16 15 15 16 14 14 14 14 14 14 14 11 11 10 11 11 10 10 10
5 6 8 10 9 10 10 10 10 9 8 8 9 10 11 10 8 7 7 7 8 10 12 13 13 15 17 15 15 17 15 14 13 12 13 15 13 10 11 11 10 9 9 9 9